SCP
0 0 1 1 0 1 1 0 0 0 0 0 0 0 0 0 0 0 0 0 0 0 0 0 0 0 0 0 0 0 0 0
0 0 1 1 1 1 1 1 0 0 0 0 0 0 0 0 0 0 0 0 0 0 0 0 0 0 0 0 0 0 0 0
0 0 2 1 1 1 1 1 0 0 1 0 0 0 0 0 0 0 0 0 0 0 0 0 0 0 0 0 0 0 0 0
0 0 3 2 2 2 1 1 1 1 1 1 1 1 1 1 1 1 1 0 1 0 0 0 0 0 0 0 0 0 0 0
0 0 6 3 2 2 2 1 1 1 1 1 1 1 1 1 1 1 1 1 1 0 0 0 0 0 0 0 0 0 0 0
0 0 3 6 2 2 1 1 1 1 2 1 1 2 2 1 1 1 1 1 1 0 0 0 0 0 0 0 0 0 0 0
0 0 1 1 4 2 2 1 1 2 2 2 1 1 2 1 1 0 1 2 1 1 0 0 0 0 0 0 0 0 0 0
0 0 0 2 5 3 2 1 3 2 2 1 1 1 2 2 1 1 1 1 1 1 0 0 0 0 0 0 0 0 0 0
0 0 0 3 7 4 3 2 3 3 2 2 1 2 2 3 3 1 1 1 1 1 1 0 0 0 0 0 0 0 0 0
0 0 0 3 6 6 6 3 3 3 2 1 2 2 5 4 2 2 1 1 2 2 1 1 1 0 0 0 0 0 0 0
0 0 1 4 5 5 3 6 5 5 4 2 3 4 5 4 2 2 3 2 2 2 1 1 0 0 0 0 0 0 0 0
0 1 1 5 4 3 4 4 9 6 7 5 4 4 4 3 2 3 2 2 2 1 1 1 0 0 0 0 0 0 0 0
1 1 3 1 4 3 4 4 4 6 7 7 3 3 3 4 3 3 2 2 2 2 1 1 0 0 0 0 0 0 0 0
1 3 4 4 4 3 4 4 3 8 6 3 3 2 3 3 2 2 2 1 2 2 1 1 0 0 0 0 0 0 0 0
2 3 5 5 5 3 5 4 3 5 3 2 2 2 4 3 2 2 2 2 2 1 1 1 0 0 0 0 0 0 0 0
2 2 4 5 6 5 4 3 3 3 3 1 2 2 2 3 2 2 2 2 1 1 1 0 0 0 0 0 0 0 0 0
2 3 3 3 4 4 4 3 2 2 1 1 1 2 2 2 1 2 2 1 1 1 0 0 0 0 0 0 0 0 0 0
1 1 1 1 2 3 2 2 3 1 2 1 2 2 2 2 2 2 1 1 1 0 0 0 0 0 0 0 0 0 0 0
1 0 1 1 1 1 2 2 2 1 1 1 1 2 3 2 1 1 1 0 0 0 0 0 0 0 0 0 0 -0 -0 0
Wind_Speed_500mb
25 25 27 28 28 32 34 32 29 25 23 18 13 8 8 11 14 15 14 15 16 18 22 24 25 23 24 21 24 23 22 22
31 28 23 30 33 35 37 36 32 28 26 22 19 15 15 15 18 20 19 17 20 23 27 29 28 31 31 32 31 29 29 24
25 33 35 28 37 40 41 42 38 33 30 25 24 23 22 23 22 25 26 22 24 33 30 32 35 37 41 39 35 37 39 31
27 36 40 40 37 46 47 49 45 42 37 32 31 32 31 31 30 32 30 27 32 36 33 33 32 32 38 40 41 40 39 36
34 43 48 45 47 50 60 58 55 51 47 42 40 40 40 39 38 38 29 30 29 30 34 36 36 35 36 38 42 41 41 40
29 45 55 47 50 43 63 67 64 61 56 54 51 49 47 45 41 32 27 32 37 39 41 43 43 36 32 34 35 39 38 42
41 29 53 50 54 53 49 65 68 72 65 64 60 54 50 43 31 15 32 34 37 35 32 34 17 20 23 28 26 16 27 29
48 40 35 54 58 61 60 48 59 60 64 73 66 58 49 32 19 26 31 30 32 31 26 26 20 23 21 15 4 23 24 19
46 45 48 49 60 66 66 54 63 63 56 59 64 54 46 34 45 39 37 33 29 28 26 26 25 27 24 17 22 26 31 31
44 45 43 49 61 66 75 63 61 60 47 41 38 39 45 45 37 27 28 25 32 36 31 26 29 34 32 33 34 36 30 34
42 49 50 53 53 63 64 75 63 62 49 46 50 49 47 43 31 36 35 37 42 39 34 36 45 35 35 25 29 30 38 36
45 55 50 47 40 54 65 72 68 64 58 57 56 43 43 41 32 36 31 32 36 32 41 41 42 36 36 35 27 28 27 41
56 54 48 40 43 51 65 69 64 50 57 46 47 45 45 45 39 33 31 35 34 42 41 38 39 32 31 31 26 17 34 29
62 40 37 40 45 53 63 58 47 50 58 62 36 36 36 37 33 29 33 35 42 44 44 41 36 30 31 28 27 29 33 28
38 39 39 42 44 53 55 46 43 53 49 37 43 37 32 32 28 32 37 39 39 41 37 35 35 31 28 25 28 32 30 28
46 44 48 47 51 59 49 41 47 44 43 41 36 32 32 33 26 35 36 44 43 38 32 34 28 25 29 28 25 24 27 25
41 37 40 44 53 54 47 42 40 43 29 34 32 31 34 34 29 33 40 42 36 32 33 33 28 26 28 30 30 24 14 28
31 28 28 36 47 52 48 43 37 34 29 31 30 27 33 33 31 33 36 34 29 31 31 23 20 26 29 31 34 25 13 14
25 20 31 43 43 46 39 40 42 40 33 26 22 22 29 24 22 30 30 29 26 21 13 22 23 26 29 31 30 43 28 13
Wind_Direction_500mb
203 206 192 194 193 198 199 198 201 206 208 211 227 253 300 323 330 325 309 292 285 283 281 287 285 284 290 275 271 279 271 273
191 223 202 201 203 207 208 208 209 213 219 224 238 259 280 300 315 316 305 290 277 287 282 275 276 273 274 268 259 261 263 264
211 206 239 224 216 213 216 215 214 218 225 234 247 262 277 286 292 300 303 294 280 282 279 280 279 276 274 265 261 259 259 264
217 212 231 237 233 225 221 222 220 221 226 238 248 259 269 275 281 288 299 301 290 285 287 285 280 278 279 271 258 256 257 262
216 214 212 232 237 240 228 224 224 225 225 233 243 254 263 268 278 288 291 300 300 300 301 299 288 284 282 273 260 252 251 255
273 218 212 215 244 243 235 230 225 228 228 231 237 247 256 262 279 292 299 302 285 298 306 304 292 291 285 274 268 260 263 261
289 281 220 217 221 244 242 239 230 229 229 233 235 242 250 261 274 281 257 264 287 292 292 318 320 314 317 280 263 270 268 268
279 289 279 226 222 226 234 233 241 233 232 234 236 240 248 257 261 260 274 280 282 279 289 306 302 305 312 334 259 257 265 283
279 289 299 248 231 229 223 217 238 238 241 234 233 235 233 231 229 244 240 240 269 287 296 282 286 281 274 270 250 256 261 248
285 290 284 283 236 232 221 213 222 234 237 235 230 233 230 230 237 241 255 249 239 241 251 269 271 253 249 253 255 248 250 254
286 285 283 278 237 237 242 219 213 219 219 226 218 225 232 240 232 229 241 251 256 271 256 250 258 258 246 259 264 238 240 241
292 296 280 256 252 237 242 224 211 219 213 219 215 222 234 247 249 238 236 246 265 267 265 251 259 266 250 248 260 266 270 244
292 289 264 248 246 242 239 227 216 216 212 214 224 221 233 242 255 241 245 252 259 264 260 261 267 263 256 242 238 277 239 247
287 267 250 237 235 237 234 229 225 212 220 218 219 222 235 251 263 261 258 250 250 257 265 266 259 263 249 237 241 250 251 250
263 252 246 235 221 230 226 228 206 212 220 198 217 221 229 248 253 250 269 270 268 272 264 252 262 263 250 239 239 248 253 239
257 253 244 229 209 212 214 196 199 200 203 204 217 222 227 234 244 261 265 267 271 269 256 266 266 249 235 237 246 248 251 223
254 255 243 218 208 206 199 191 199 195 216 205 220 227 235 246 255 257 265 272 270 262 263 263 259 240 230 222 231 244 233 218
243 246 227 196 188 188 191 180 189 191 204 199 205 206 231 236 261 264 270 273 269 265 258 256 242 229 232 244 237 216 194 212
220 210 185 185 192 181 175 179 184 189 195 216 233 228 226 258 277 280 275 284 272 264 228 248 251 242 247 243 242 224 210 182
Wind_Speed_850mb
25 25 27 28 28 32 34 32 29 25 23 18 13 8 8 11 14 15 14 15 16 18 22 24 25 23 24 21 24 23 22 22
31 28 23 30 33 35 37 36 32 28 26 22 19 15 15 15 18 20 19 17 20 23 27 29 28 31 31 32 31 29 29 24
25 33 35 28 37 40 41 42 38 33 30 25 24 23 22 23 22 25 26 22 24 33 30 32 35 37 41 39 35 37 39 31
27 36 40 40 37 46 47 49 45 42 37 32 31 32 31 31 30 32 30 27 32 36 33 33 32 32 38 40 41 40 39 36
34 43 48 45 47 50 60 58 55 51 47 42 40 40 40 39 38 38 29 30 29 30 34 36 36 35 36 38 42 41 41 40
29 45 55 47 50 43 63 67 64 61 56 54 51 49 47 45 41 32 27 32 37 39 41 43 43 36 32 34 35 39 38 42
41 29 53 50 54 53 49 65 68 72 65 64 60 54 50 43 31 15 32 34 37 35 32 34 17 20 23 28 26 16 27 29
48 40 35 54 58 61 60 48 59 60 64 73 66 58 49 32 19 26 31 30 32 31 26 26 20 23 21 15 4 23 24 19
46 45 48 49 60 66 66 54 63 63 56 59 64 54 46 34 45 39 37 33 29 28 26 26 25 27 24 17 22 26 31 31
44 45 43 49 61 66 75 63 61 60 47 41 38 39 45 45 37 27 28 25 32 36 31 26 29 34 32 33 34 36 30 34
42 49 50 53 53 63 64 75 63 62 49 46 50 49 47 43 31 36 35 37 42 39 34 36 45 35 35 25 29 30 38 36
45 55 50 47 40 54 65 72 68 64 58 57 56 43 43 41 32 36 31 32 36 32 41 41 42 36 36 35 27 28 27 41
56 54 48 40 43 51 65 69 64 50 57 46 47 45 45 45 39 33 31 35 34 42 41 38 39 32 31 31 26 17 34 29
62 40 37 40 45 53 63 58 47 50 58 62 36 36 36 37 33 29 33 35 42 44 44 41 36 30 31 28 27 29 33 28
38 39 39 42 44 53 55 46 43 53 49 37 43 37 32 32 28 32 37 39 39 41 37 35 35 31 28 25 28 32 30 28
46 44 48 47 51 59 49 41 47 44 43 41 36 32 32 33 26 35 36 44 43 38 32 34 28 25 29 28 25 24 27 25
41 37 40 44 53 54 47 42 40 43 29 34 32 31 34 34 29 33 40 42 36 32 33 33 28 26 28 30 30 24 14 28
31 28 28 36 47 52 48 43 37 34 29 31 30 27 33 33 31 33 36 34 29 31 31 23 20 26 29 31 34 25 13 14
25 20 31 43 43 46 39 40 42 40 33 26 22 22 29 24 22 30 30 29 26 21 13 22 23 26 29 31 30 43 28 13
Wind_Direction_850mb
203 206 192 194 193 198 199 198 201 206 208 211 227 253 300 323 330 325 309 292 285 283 281 287 285 284 290 275 271 279 271 273
191 223 202 201 203 207 208 208 209 213 219 224 238 259 280 300 315 316 305 290 277 287 282 275 276 273 274 268 259 261 263 264
211 206 239 224 216 213 216 215 214 218 225 234 247 262 277 286 292 300 303 294 280 282 279 280 279 276 274 265 261 259 259 264
217 212 231 237 233 225 221 222 220 221 226 238 248 259 269 275 281 288 299 301 290 285 287 285 280 278 279 271 258 256 257 262
216 214 212 232 237 240 228 224 224 225 225 233 243 254 263 268 278 288 291 300 300 300 301 299 288 284 282 273 260 252 251 255
273 218 212 215 244 243 235 230 225 228 228 231 237 247 256 262 279 292 299 302 285 298 306 304 292 291 285 274 268 260 263 261
289 281 220 217 221 244 242 239 230 229 229 233 235 242 250 261 274 281 257 264 287 292 292 318 320 314 317 280 263 270 268 268
279 289 279 226 222 226 234 233 241 233 232 234 236 240 248 257 261 260 274 280 282 279 289 306 302 305 312 334 259 257 265 283
279 289 299 248 231 229 223 217 238 238 241 234 233 235 233 231 229 244 240 240 269 287 296 282 286 281 274 270 250 256 261 248
285 290 284 283 236 232 221 213 222 234 237 235 230 233 230 230 237 241 255 249 239 241 251 269 271 253 249 253 255 248 250 254
286 285 283 278 237 237 242 219 213 219 219 226 218 225 232 240 232 229 241 251 256 271 256 250 258 258 246 259 264 238 240 241
292 296 280 256 252 237 242 224 211 219 213 219 215 222 234 247 249 238 236 246 265 267 265 251 259 266 250 248 260 266 270 244
292 289 264 248 246 242 239 227 216 216 212 214 224 221 233 242 255 241 245 252 259 264 260 261 267 263 256 242 238 277 239 247
287 267 250 237 235 237 234 229 225 212 220 218 219 222 235 251 263 261 258 250 250 257 265 266 259 263 249 237 241 250 251 250
263 252 246 235 221 230 226 228 206 212 220 198 217 221 229 248 253 250 269 270 268 272 264 252 262 263 250 239 239 248 253 239
257 253 244 229 209 212 214 196 199 200 203 204 217 222 227 234 244 261 265 267 271 269 256 266 266 249 235 237 246 248 251 223
254 255 243 218 208 206 199 191 199 195 216 205 220 227 235 246 255 257 265 272 270 262 263 263 259 240 230 222 231 244 233 218
243 246 227 196 188 188 191 180 189 191 204 199 205 206 231 236 261 264 270 273 269 265 258 256 242 229 232 244 237 216 194 212
220 210 185 185 192 181 175 179 184 189 195 216 233 228 226 258 277 280 275 284 272 264 228 248 251 242 247 243 242 224 210 182